Location: Crocus Hill
(18.2167°N, 63.0667°W)
Time: 18:41:29
(UTC+00:00)

SL-16 R/B - Pass Details

Date: 26 January 2020
Orbit: 842 x 848 km, 71.0° (Epoch: 26 February)

Event Time Altitude Azimuth Distance (km) Brightness Sun altitude
Rises 00:05:13 0° 327° (NNW) 3,396 5.6 -28.9°
Reaches altitude 10° 00:07:55 10° 316° (NW) 2,459 4.9 -29.5°
Maximum altitude 00:12:45 30° 257° (WSW) 1,467 4.0 -30.6°
Drops below altitude 10° 00:17:35 10° 198° (SSW) 2,451 4.9 -31.8°
Sets 00:20:18 0° 187° (S) 3,383 5.5 -32.4°
